Location: Tamazert
(32.6352°N, 5.2072°W)
Time: 16:13:34
(UTC+00:00)

Vanguard 3 - Pass Details

Date: 06 October 2022
Orbit: 509 x 3255 km, 33.3° (Epoch: 08 December)

Event Time Altitude Azimuth Distance (km) Brightness Sun altitude
Rises 14:22:41 0° 274° (W) 4,085 11.2 40.6°
Reaches altitude 10° 14:25:30 10° 262° (W) 3,450 11.2 40.1°
Maximum altitude 14:33:05 29° 207° (SSW) 3,056 11.7 38.9°
Drops below altitude 10° 14:44:37 10° 155° (SSE) 5,341 11.6 37.1°
Sets 14:50:28 0° 146° (SSE) 6,741 11.9 36.1°
